N14CK -KGWS

Flight info

Callsign N14CK
Flight time N/A
Altitude VFR
Route
Aircraft M20/L-VGD/C

Departure

Time N/A
Airport -

Arrival

Time 2026-04-22 00:30
Airport Glenwood Springs Municipal Airport (KGWS)
Time Latitude Longitude Altitude Speed Heading
2026-04-22 00:22 39.32888 -106.95925 10348 ft 150 kts 290°
2026-04-22 00:22 39.33310 -106.97188 10353 ft 156 kts 287°
2026-04-22 00:22 39.33647 -106.98542 10355 ft 161 kts 284°
2026-04-22 00:23 39.34003 -106.99915 10374 ft 162 kts 284°
2026-04-22 00:23 39.34390 -107.01273 10245 ft 157 kts 289°
2026-04-22 00:23 39.34792 -107.02515 10205 ft 147 kts 289°
2026-04-22 00:23 39.35152 -107.03770 9964 ft 144 kts 292°
2026-04-22 00:24 39.35482 -107.04969 9970 ft 139 kts 282°
2026-04-22 00:24 39.35753 -107.06161 10114 ft 139 kts 282°
2026-04-22 00:24 39.36046 -107.07363 10189 ft 142 kts 283°
2026-04-22 00:24 39.36390 -107.08583 10219 ft 147 kts 287°
2026-04-22 00:25 39.36845 -107.09798 10202 ft 152 kts 296°
2026-04-22 00:25 39.37444 -107.10928 10236 ft 152 kts 301°
2026-04-22 00:25 39.38037 -107.12057 10345 ft 151 kts 297°
2026-04-22 00:25 39.38579 -107.13226 10376 ft 152 kts 296°
2026-04-22 00:26 39.39115 -107.14472 10113 ft 167 kts 295°
2026-04-22 00:26 39.39648 -107.15818 9857 ft 172 kts 292°
2026-04-22 00:26 39.40172 -107.17236 9493 ft 180 kts 291°
2026-04-22 00:26 39.40728 -107.18699 9271 ft 180 kts 293°
2026-04-22 00:27 39.41308 -107.20120 9029 ft 178 kts 295°
2026-04-22 00:27 39.41916 -107.21518 8796 ft 177 kts 297°
2026-04-22 00:27 39.42541 -107.22857 8583 ft 170 kts 298°
2026-04-22 00:27 39.43166 -107.24114 8390 ft 164 kts 300°
2026-04-22 00:28 39.43819 -107.25287 8177 ft 157 kts 302°
2026-04-22 00:28 39.44509 -107.26398 7797 ft 157 kts 309°
2026-04-22 00:28 39.45288 -107.27343 7528 ft 148 kts 317°
2026-04-22 00:28 39.46137 -107.28042 7307 ft 143 kts 329°
2026-04-22 00:29 39.46973 -107.28595 6979 ft 125 kts 328°
2026-04-22 00:29 39.47715 -107.29059 6751 ft 113 kts 327°
2026-04-22 00:29 39.48385 -107.29506 6569 ft 106 kts 330°
2026-04-22 00:29 39.49027 -107.29943 6353 ft 102 kts 333°
2026-04-22 00:30 39.49631 -107.30299 6085 ft 92 kts 330°
2026-04-22 00:30 39.50194 -107.30655 5871 ft 86 kts 328°
2026-04-22 00:30 39.50620 -107.30917 5852 ft 34 kts 341°
2026-04-22 00:30 39.50680 -107.30928 5851 ft 8 kts 19°
2026-04-22 00:31 39.50731 -107.30951 5852 ft 7 kts 340°
2026-04-22 00:31 39.50770 -107.30943 5853 ft 5 kts 340°
2026-04-22 00:31 39.50804 -107.30968 5854 ft 7 kts 328°
2026-04-22 00:31 39.50852 -107.31002 5854 ft 9 kts 332°
2026-04-22 00:32 39.50915 -107.31045 5856 ft 11 kts 332°
2026-04-22 00:32 39.50981 -107.31088 5857 ft 10 kts 336°
2026-04-22 00:32 39.51019 -107.31116 5858 ft 3 kts 311°
2026-04-22 00:32 39.51041 -107.31123 5859 ft 4 kts 350°
2026-04-22 00:33 39.51049 -107.31136 5859 ft 0 kts 166°
2026-04-22 00:37 39.51048 -107.31135 5859 ft 0 kts 155°
2026-04-22 00:38 39.51047 -107.31135 5859 ft 0 kts 155°
2026-04-22 00:45 39.51034 -107.31124 5861 ft 5 kts 149°
2026-04-22 00:45 39.51019 -107.31130 5863 ft 0 kts 242°
2026-04-22 00:46 39.51002 -107.31161 5861 ft 10 kts 198°
2026-04-22 00:47 39.50888 -107.31098 5858 ft 34 kts 154°
2026-04-22 00:47 39.50573 -107.30896 5858 ft 65 kts 154°
2026-04-22 00:47 39.50106 -107.30589 5886 ft 83 kts 153°
2026-04-22 00:47 39.49624 -107.30084 6031 ft 92 kts 151°
2026-04-22 00:48 39.49021 -107.29737 6223 ft 101 kts 164°
2026-04-22 00:48 39.48389 -107.29309 6620 ft 98 kts 141°
2026-04-22 00:48 39.48034 -107.28498 6827 ft 112 kts 113°
2026-04-22 00:48 39.47833 -107.27532 7216 ft 107 kts 105°
2026-04-22 00:49 39.47677 -107.26537 7524 ft 119 kts 103°
2026-04-22 00:49 39.47528 -107.25439 7861 ft 127 kts 102°
2026-04-22 00:49 39.47426 -107.24319 8186 ft 124 kts 101°
2026-04-22 00:49 39.47378 -107.23220 8392 ft 123 kts 98°
2026-04-22 00:50 39.47351 -107.22078 8540 ft 130 kts 96°
2026-04-22 00:50 39.47323 -107.20886 8673 ft 134 kts 96°
2026-04-22 00:50 39.47328 -107.19717 8902 ft 128 kts 85°
2026-04-22 00:50 39.47532 -107.18586 9068 ft 130 kts 75°
2026-04-22 00:51 39.47828 -107.17481 9291 ft 131 kts 73°
2026-04-22 00:51 39.48127 -107.16350 9512 ft 133 kts 74°
2026-04-22 00:51 39.48488 -107.15234 9709 ft 138 kts 68°
2026-04-22 00:51 39.48887 -107.14040 9756 ft 153 kts 70°
2026-04-22 00:52 39.49282 -107.12707 9743 ft 166 kts 73°
2026-04-22 00:52 39.49690 -107.11233 9633 ft 181 kts 74°
2026-04-22 00:52 39.50124 -107.09666 9554 ft 186 kts 71°
2026-04-22 00:52 39.50629 -107.08144 9617 ft 183 kts 66°
2026-04-22 00:53 39.51378 -107.06841 9591 ft 180 kts 43°
2026-04-22 00:53 39.52380 -107.05893 9525 ft 177 kts 34°
2026-04-22 00:53 39.53398 -107.05019 9494 ft 174 kts 35°
2026-04-22 00:53 39.54286 -107.03995 9508 ft 170 kts 48°
2026-04-22 00:54 39.55075 -107.02822 9432 ft 173 kts 49°
2026-04-22 00:54 39.55877 -107.01649 9349 ft 175 kts 48°
2026-04-22 00:54 39.56410 -107.00854 9269 ft 177 kts 47°
2026-04-22 00:54 39.57231 -106.99652 9213 ft 180 kts 49°
2026-04-22 00:55 39.58084 -106.98439 9078 ft 181 kts 47°
2026-04-22 00:55 39.58942 -106.97246 8963 ft 179 kts 46°
2026-04-22 00:55 39.60609 -106.94916 8398 ft 169 kts 47°
2026-04-22 00:56 39.61400 -106.93813 8046 ft 166 kts 46°
2026-04-22 00:56 39.62215 -106.92796 7720 ft 160 kts 45°
2026-04-22 00:56 39.62584 -106.91665 7705 ft 126 kts 94°
2026-04-22 00:56 39.62575 -106.90585 7679 ft 116 kts 93°
2026-04-22 00:57 39.62635 -106.89578 7665 ft 108 kts 85°
2026-04-22 00:57 39.62749 -106.88628 7673 ft 102 kts 82°
2026-04-22 00:57 39.62933 -106.87744 7732 ft 100 kts 67°
2026-04-22 00:57 39.63379 -106.87084 7484 ft 98 kts 19°
2026-04-22 00:58 39.64065 -106.87013 7417 ft 104 kts 341°
2026-04-22 00:58 39.64613 -106.87556 7357 ft 101 kts 288°
2026-04-22 00:58 39.64635 -106.88428 7095 ft 91 kts 263°
2026-04-22 00:58 39.64552 -106.89159 6862 ft 76 kts 264°
2026-04-22 00:59 39.64475 -106.89824 6686 ft 73 kts 262°
2026-04-22 00:59 39.64403 -106.90458 6574 ft 69 kts 263°
2026-04-22 00:59 39.64340 -106.91028 6525 ft 58 kts 264°
2026-04-22 00:59 39.64309 -106.91344 6517 ft 24 kts 259°
2026-04-22 01:00 39.64276 -106.91551 6507 ft 18 kts 225°
2026-04-22 01:00 39.64187 -106.91574 6506 ft 8 kts 161°
2026-04-22 01:00 39.64174 -106.91530 6508 ft 6 kts 79°
2026-04-22 01:00 39.64181 -106.91458 6511 ft 10 kts 78°
2026-04-22 01:01 39.64193 -106.91356 6516 ft 13 kts 84°
2026-04-22 01:01 39.64205 -106.91237 6521 ft 14 kts 82°
2026-04-22 01:01 39.64220 -106.91097 6522 ft 18 kts 84°
2026-04-22 01:01 39.64239 -106.90929 6526 ft 20 kts 81°
2026-04-22 01:02 39.64257 -106.90748 6529 ft 22 kts 84°
2026-04-22 01:02 39.64280 -106.90540 6529 ft 23 kts 81°
2026-04-22 01:02 39.64300 -106.90391 6534 ft 11 kts 53°
2026-04-22 01:02 39.64319 -106.90376 6534 ft 0 kts
2026-04-22 01:05 39.64320 -106.90376 6534 ft 3 kts
2026-04-22 01:05 39.64383 -106.90394 6534 ft 12 kts 318°
2026-04-22 01:05 39.64402 -106.90458 6534 ft 0 kts 262°
2026-04-22 01:06 39.64402 -106.90462 6534 ft 6 kts 261°
2026-04-22 01:06 39.64379 -106.90700 6528 ft 46 kts 262°
2026-04-22 01:06 39.64317 -106.91240 6536 ft 72 kts 261°
2026-04-22 01:06 39.64220 -106.91981 6638 ft 87 kts 262°
2026-04-22 01:07 39.64128 -106.92757 6873 ft 89 kts 265°
2026-04-22 01:07 39.63996 -106.93574 7088 ft 94 kts 243°
2026-04-22 01:07 39.63448 -106.93936 7343 ft 92 kts 181°
2026-04-22 01:07 39.62854 -106.93637 7584 ft 100 kts 141°
2026-04-22 01:08 39.62597 -106.92800 7813 ft 102 kts 95°
2026-04-22 01:08 39.62697 -106.91839 7962 ft 109 kts 80°
2026-04-22 01:08 39.62869 -106.90877 8167 ft 114 kts 81°
2026-04-22 01:08 39.62988 -106.89827 8350 ft 119 kts 85°
2026-04-22 01:09 39.63102 -106.88780 8647 ft 118 kts 81°
2026-04-22 01:09 39.63265 -106.87685 8798 ft 125 kts 78°
2026-04-22 01:09 39.63451 -106.86564 8789 ft 128 kts 77°
2026-04-22 01:09 39.63773 -106.85514 8969 ft 128 kts 61°
2026-04-22 01:10 39.64194 -106.84478 9094 ft 129 kts 64°
2026-04-22 01:10 39.64627 -106.83426 9174 ft 133 kts 63°
2026-04-22 01:10 39.65014 -106.82376 9385 ft 127 kts 66°
2026-04-22 01:10 39.65390 -106.81349 9547 ft 127 kts 66°
2026-04-22 01:11 39.65778 -106.80336 9794 ft 123 kts 65°
2026-04-22 01:11 39.66173 -106.79329 9888 ft 126 kts 65°
2026-04-22 01:11 39.66563 -106.78301 9997 ft 129 kts 66°
2026-04-22 01:11 39.66773 -106.77196 10164 ft 127 kts 88°
2026-04-22 01:12 39.66812 -106.76022 10278 ft 130 kts 95°
2026-04-22 01:12 39.66794 -106.74832 10405 ft 132 kts 93°
2026-04-22 01:12 39.66762 -106.73628 10529 ft 136 kts 100°
2026-04-22 01:12 39.66677 -106.72423 10790 ft 130 kts 100°
2026-04-22 01:13 39.66561 -106.71271 11024 ft 128 kts 103°
2026-04-22 01:13 39.66416 -106.70118 11159 ft 132 kts 105°
2026-04-22 01:13 39.66241 -106.68973 11348 ft 127 kts 103°
2026-04-22 01:13 39.66070 -106.67869 11517 ft 123 kts 105°
2026-04-22 01:14 39.65893 -106.66770 11634 ft 127 kts 105°
2026-04-22 01:14 39.65716 -106.65628 11751 ft 130 kts 105°
2026-04-22 01:14 39.65534 -106.64480 11893 ft 130 kts 105°
2026-04-22 01:14 39.65346 -106.63317 11986 ft 132 kts 105°
2026-04-22 01:15 39.65160 -106.62169 12122 ft 130 kts 105°
2026-04-22 01:15 39.64979 -106.61026 12283 ft 128 kts 104°
2026-04-22 01:15 39.64818 -106.59902 12453 ft 127 kts 104°
2026-04-22 01:15 39.64631 -106.58767 12583 ft 129 kts 106°
2026-04-22 01:16 39.64438 -106.57625 12727 ft 129 kts 107°
2026-04-22 01:16 39.64214 -106.56512 12865 ft 129 kts 110°
2026-04-22 01:16 39.63918 -106.55403 12987 ft 131 kts 116°
2026-04-22 01:16 39.63555 -106.54316 13106 ft 132 kts 118°
2026-04-22 01:17 39.63149 -106.53250 13194 ft 134 kts 121°
2026-04-22 01:17 39.62675 -106.52189 13270 ft 135 kts 126°
2026-04-22 01:17 39.62183 -106.51150 13265 ft 137 kts 127°
2026-04-22 01:17 39.61648 -106.50123 13246 ft 140 kts 131°
2026-04-22 01:18 39.61030 -106.49122 13298 ft 143 kts 135°
2026-04-22 01:18 39.60374 -106.48145 13399 ft 143 kts 136°
2026-04-22 01:18 39.59731 -106.47174 13504 ft 141 kts 135°
2026-04-22 01:18 39.59097 -106.46170 13564 ft 144 kts 133°
2026-04-22 01:19 39.58465 -106.45172 13683 ft 142 kts 134°
2026-04-22 01:19 39.57815 -106.44176 13651 ft 150 kts 134°
2026-04-22 01:19 39.57133 -106.43117 13664 ft 153 kts 134°
2026-04-22 01:19 39.56447 -106.42092 13749 ft 150 kts 137°
2026-04-22 01:20 39.55680 -106.41145 13669 ft 160 kts 144°
2026-04-22 01:20 39.54792 -106.40226 13580 ft 166 kts 147°
2026-04-22 01:20 39.53878 -106.39293 13574 ft 169 kts 146°
2026-04-22 01:20 39.52953 -106.38365 13606 ft 168 kts 148°
2026-04-22 01:21 39.51972 -106.37499 13529 ft 173 kts 149°
2026-04-22 01:21 39.50973 -106.36650 13534 ft 172 kts 149°